Location: LDNL
(36.4545°S, 141.6685°E)
Time: 12:27:23
(UTC+10:00)

Explorer 7 - Pass Details

Date: 12 August 2022
Orbit: 482 x 668 km, 50.3° (Epoch: 26 September)

Event Time Altitude Azimuth Distance (km) Brightness Sun altitude
Rises 22:40:09 0° 230° (SW) 2,944 - -56.0°
Reaches altitude 10° 22:43:24 10° 207° (SSW) 1,996 - -56.5°
Maximum altitude 22:46:11 16° 170° (S) 1,616 - -57.0°
Drops below altitude 10° 22:48:53 10° 132° (SE) 1,919 - -57.4°
Sets 22:51:54 0° 109° (ESE) 2,770 - -57.9°
